Simultaneous Nadir Overpasses (SNOs) Predictions

Prediction of SNOs between NOAA-19 and TERRA Satellite Orbit:

Table of predicted SNOs for the next 14.0 days since TLE Epoch: 2/2/2019
Index Date (NOAA-19) Time (NOAA-19) Lat,Lon (NOAA-19) SZA (NOAA-19 ) Date (TERRA) Time (TERRA) Lat,Lon (TERRA) SZA (TERRA ) Distance(km) Time Diff (sec)
1 02/03/2019 23:04:14 78.01,-146.10 94.80 02/03/2019 23:05:06 78.02,-146.11 94.82 1.13 52
2 02/03/2019 23:55:17 -77.98, 21.31 85.24 02/03/2019 23:54:34 -77.99, 21.38 85.23 2.02 43
3 02/06/2019 04:37:47 -78.03, -49.53 85.86 02/06/2019 04:38:52 -78.01, -49.59 85.87 2.70 65
4 02/06/2019 05:28:43 78.01, 117.88 94.12 02/06/2019 05:28:18 78.00, 118.00 94.11 2.69 25
5 02/08/2019 11:02:16 -78.01,-145.47 86.57 02/08/2019 11:02:04 -78.02,-145.36 86.57 2.62 12
6 02/10/2019 16:35:41 78.04, -48.87 92.73 02/10/2019 16:35:49 78.03, -48.74 92.74 3.07 8
7 02/12/2019 22:09:14 -78.03, 47.88 88.01 02/12/2019 22:09:37 -78.02, 47.75 88.02 3.32 23
8 02/12/2019 23:00:09 78.00,-144.69 91.97 02/12/2019 22:59:03 78.00,-144.69 91.95 0.09 66
9 02/15/2019 03:42:38 78.04, 144.55 91.26 02/15/2019 03:43:22 78.07, 144.57 91.30 4.09 44




NCC Satellite Simultaneous Nadir Overpasses (SNOs) Prediction Service
